| time (UTC) | temp F | wind direction | speed MPH | gust MPH | rain 1hr in | rain 24hr in | rain mn in | humidity % | barometer mb |
| 20260906130837 | 64 | 114 | 0.0 | 0.0 | 0.00 | 0.00 | 0.00 | 99 | 1015.8 |
| 20260906130336 | 62 | 113 | 0.0 | 0.0 | 0.00 | 0.00 | 0.00 | 99 | 1015.8 |
| 20260906125835 | 60 | 113 | 0.0 | 0.0 | 0.00 | 0.00 | 0.00 | 99 | 1015.3 |
| 20260906125332 | 60 | 112 | 0.0 | 0.0 | 0.00 | 0.00 | 0.00 | 99 | 1015.6 |
| 20260906124827 | 59 | 108 | 0.0 | 0.0 | 0.00 | 0.00 | 0.00 | 99 | 1015.7 |
| 20260906124324 | 59 | 97 | 0.0 | 0.0 | 0.00 | 0.00 | 0.00 | 99 | 1015.5 |
| 20260906123823 | 58 | 95 | 0.0 | 0.0 | 0.00 | 0.00 | 0.00 | 99 | 1015.4 |
| 20260906123318 | 58 | 95 | 0.0 | 0.0 | 0.00 | 0.00 | 0.00 | 99 | 1015.6 |
| 20260906122817 | 57 | 94 | 0.0 | 0.0 | 0.00 | 0.00 | 0.00 | 99 | 1015.6 |
| 20260906122312 | 57 | 90 | 0.0 | 0.0 | 0.00 | 0.00 | 0.00 | 99 | 1015.5 |
| 20260906121809 | 59 | 51 | 0.0 | 0.0 | 0.00 | 0.00 | 0.00 | 99 | 1015.2 |
| 20260906121305 | 62 | 46 | 0.0 | 0.0 | 0.00 | 0.00 | 0.00 | 99 | 1015.3 |
| 20260906120801 | 57 | 34 | 0.0 | 0.0 | 0.00 | 0.00 | 0.00 | 99 | 1015.2 |
| 20260906120257 | 57 | 30 | 0.0 | 0.0 | 0.00 | 0.00 | 0.00 | 99 | 1015.4 |
| 20260906115753 | 55 | 30 | 0.0 | 0.0 | 0.00 | 0.00 | 0.00 | 99 | 1015.1 |
| 20260906115248 | 55 | 30 | 0.0 | 0.0 | 0.00 | 0.00 | 0.00 | 99 | 1015.2 |
| 20260906114747 | 54 | 30 | 0.0 | 0.0 | 0.00 | 0.00 | 0.00 | 99 | 1015.2 |
| 20260906114242 | 54 | 30 | 0.0 | 0.0 | 0.00 | 0.00 | 0.00 | 99 | 1014.9 |
| 20260906113738 | 54 | 30 | 0.0 | 0.0 | 0.00 | 0.00 | 0.00 | 99 | 1015.1 |
| 20260906113237 | 53 | 25 | 0.0 | 0.0 | 0.00 | 0.00 | 0.00 | 99 | 1015.0 |
| 20260906112737 | 53 | 25 | 0.0 | 0.0 | 0.00 | 0.00 | 0.00 | 99 | 1014.8 |
| 20260906112233 | 53 | 25 | 0.0 | 0.0 | 0.00 | 0.00 | 0.00 | 99 | 1014.7 |
| 20260906111733 | 53 | 25 | 0.0 | 0.0 | 0.00 | 0.00 | 0.00 | 99 | 1014.9 |
| 20260906111227 | 53 | 25 | 0.0 | 0.0 | 0.00 | 0.00 | 0.00 | 99 | 1014.4 |
| 20260906110722 | 53 | 25 | 0.0 | 0.0 | 0.00 | 0.00 | 0.00 | 99 | 1014.9 |
| 20260906110218 | 53 | 25 | 0.0 | 0.0 | 0.00 | 0.00 | 0.00 | 99 | 1014.2 |
| 20260906105717 | 53 | 25 | 0.0 | 0.0 | 0.00 | 0.00 | 0.00 | 99 | 1014.3 |
| 20260906105214 | 53 | 25 | 0.0 | 0.0 | 0.00 | 0.00 | 0.00 | 99 | 1014.4 |
| 20260906104713 | 53 | 25 | 0.0 | 0.0 | 0.00 | 0.00 | 0.00 | 99 | 1014.3 |
| 20260906104212 | 53 | 25 | 0.0 | 0.0 | 0.00 | 0.00 | 0.00 | 99 | 1014.7 |
| 20260906103710 | 53 | 25 | 0.0 | 0.0 | 0.00 | 0.00 | 0.00 | 99 | 1014.7 |
| 20260906103205 | 53 | 25 | 0.0 | 0.0 | 0.00 | 0.00 | 0.00 | 99 | 1014.8 |
| 20260906102701 | 53 | 25 | 0.0 | 0.0 | 0.00 | 0.00 | 0.00 | 99 | 1014.7 |
| 20260906102159 | 53 | 25 | 0.0 | 0.0 | 0.00 | 0.00 | 0.00 | 99 | 1014.6 |
| 20260906101654 | 53 | 24 | 0.0 | 0.0 | 0.00 | 0.00 | 0.00 | 99 | 1014.6 |
| 20260906101149 | 54 | 24 | 0.0 | 0.0 | 0.00 | 0.00 | 0.00 | 99 | 1014.4 |
| 20260906100644 | 54 | 322 | 0.0 | 0.0 | 0.00 | 0.00 | 0.00 | 99 | 1014.6 |
| 20260906100139 | 54 | 322 | 0.0 | 0.0 | 0.00 | 0.00 | 0.00 | 99 | 1014.3 |
| 20260906095634 | 54 | 322 | 0.0 | 0.0 | 0.00 | 0.00 | 0.00 | 99 | 1014.8 |
| 20260906095129 | 53 | 323 | 0.0 | 0.0 | 0.00 | 0.00 | 0.00 | 99 | 1014.4 |
| 20260906094628 | 53 | 323 | 0.0 | 0.0 | 0.00 | 0.00 | 0.00 | 99 | 1014.9 |
| 20260906094124 | 53 | 323 | 0.0 | 0.0 | 0.00 | 0.00 | 0.00 | 99 | 1014.4 |
| 20260906093621 | 53 | 323 | 0.0 | 0.0 | 0.00 | 0.00 | 0.00 | 99 | 1014.3 |
| 20260906093120 | 54 | 323 | 0.0 | 0.0 | 0.00 | 0.00 | 0.00 | 99 | 1014.3 |
| 20260906092615 | 54 | 323 | 0.0 | 0.0 | 0.00 | 0.00 | 0.00 | 99 | 1014.3 |
| 20260906092110 | 54 | 323 | 0.0 | 0.0 | 0.00 | 0.00 | 0.00 | 99 | 1014.4 |
| 20260906091606 | 54 | 323 | 0.0 | 0.0 | 0.00 | 0.00 | 0.00 | 99 | 1014.2 |
| 20260906091103 | 54 | 323 | 0.0 | 0.0 | 0.00 | 0.00 | 0.00 | 99 | 1014.4 |
| 20260906090603 | 54 | 323 | 0.0 | 0.0 | 0.00 | 0.00 | 0.00 | 99 | 1014.2 |
| 20260906085602 | 54 | 323 | 0.0 | 0.0 | 0.00 | 0.00 | 0.00 | 99 | 1014.7 |
| 20260906085056 | 54 | 323 | 0.0 | 0.0 | 0.00 | 0.00 | 0.00 | 99 | 1014.3 |
| 20260906084551 | 54 | 322 | 0.0 | 0.0 | 0.00 | 0.00 | 0.00 | 99 | 1014.4 |
| 20260906084050 | 54 | 323 | 0.0 | 0.0 | 0.00 | 0.00 | 0.00 | 99 | 1014.4 |
| 20260906083546 | 54 | 322 | 0.0 | 0.0 | 0.00 | 0.00 | 0.00 | 99 | 1014.3 |
| 20260906083045 | 54 | 323 | 0.0 | 0.0 | 0.00 | 0.00 | 0.00 | 99 | 1014.1 |
| 20260906082540 | 55 | 323 | 0.0 | 0.0 | 0.00 | 0.00 | 0.00 | 99 | 1014.0 |
| 20260906082036 | 55 | 323 | 0.0 | 0.0 | 0.00 | 0.00 | 0.00 | 99 | 1014.1 |
| 20260906081532 | 55 | 322 | 0.0 | 0.0 | 0.00 | 0.00 | 0.00 | 99 | 1014.3 |
| 20260906081027 | 55 | 323 | 0.0 | 0.0 | 0.00 | 0.00 | 0.00 | 99 | 1014.3 |
| 20260906080523 | 54 | 323 | 0.0 | 0.0 | 0.00 | 0.00 | 0.00 | 99 | 1014.0 |
| 20260906080020 | 55 | 322 | 0.0 | 0.0 | 0.00 | 0.00 | 0.00 | 99 | 1014.0 |
| 20260906075513 | 55 | 322 | 0.0 | 0.0 | 0.00 | 0.00 | 0.00 | 99 | 1013.8 |
| 20260906075008 | 55 | 322 | 0.0 | 0.0 | 0.00 | 0.00 | 0.00 | 99 | 1013.8 |
| 20260906074503 | 55 | 322 | 0.0 | 0.0 | 0.00 | 0.00 | 0.00 | 99 | 1013.9 |
| 20260906074001 | 55 | 322 | 0.0 | 0.0 | 0.00 | 0.00 | 0.00 | 99 | 1013.7 |
| 20260906073456 | 55 | 322 | 0.0 | 0.0 | 0.00 | 0.00 | 0.00 | 99 | 1014.0 |
| 20260906072953 | 55 | 323 | 0.0 | 0.0 | 0.00 | 0.00 | 0.00 | 99 | 1013.8 |
| 20260906072448 | 55 | 323 | 0.0 | 0.0 | 0.00 | 0.00 | 0.00 | 99 | 1013.7 |
| 20260906071943 | 55 | 323 | 0.0 | 0.0 | 0.00 | 0.00 | 0.00 | 99 | 1013.9 |
| 20260906071439 | 55 | 323 | 0.0 | 0.0 | 0.00 | 0.00 | 0.00 | 99 | 1013.6 |
| 20260906070935 | 55 | 323 | 0.0 | 0.0 | 0.00 | 0.00 | 0.00 | 99 | 1013.5 |
| 20260906070431 | 56 | 323 | 0.0 | 0.0 | 0.00 | 0.00 | 0.00 | 99 | 1013.6 |
| 20260906065926 | 56 | 323 | 0.0 | 0.0 | 0.00 | 0.00 | 0.00 | 99 | 1013.5 |
| 20260906065421 | 55 | 323 | 0.0 | 0.0 | 0.00 | 0.00 | 0.00 | 99 | 1013.5 |
| 20260906064916 | 55 | 323 | 0.0 | 0.0 | 0.00 | 0.00 | 0.00 | 99 | 1013.4 |
| 20260906064412 | 55 | 323 | 0.0 | 0.0 | 0.00 | 0.00 | 0.00 | 99 | 1013.7 |
| 20260906063907 | 56 | 323 | 0.0 | 0.0 | 0.00 | 0.00 | 0.00 | 99 | 1013.8 |
| 20260906063402 | 56 | 323 | 0.0 | 0.0 | 0.00 | 0.00 | 0.00 | 99 | 1013.7 |
| 20260906062857 | 56 | 323 | 0.0 | 0.0 | 0.00 | 0.00 | 0.00 | 99 | 1013.7 |
| 20260906062356 | 56 | 322 | 0.0 | 0.0 | 0.00 | 0.00 | 0.00 | 99 | 1013.8 |
| 20260906061851 | 57 | 323 | 0.0 | 0.0 | 0.00 | 0.00 | 0.00 | 99 | 1013.5 |
| 20260906061348 | 57 | 323 | 0.0 | 0.0 | 0.00 | 0.00 | 0.00 | 99 | 1013.5 |
| 20260906060842 | 57 | 322 | 0.0 | 0.0 | 0.00 | 0.00 | 0.00 | 99 | 1013.7 |
| 20260906060340 | 57 | 323 | 0.0 | 0.0 | 0.00 | 0.00 | 0.00 | 99 | 1013.5 |
| 20260906055836 | 56 | 323 | 0.0 | 0.0 | 0.00 | 0.00 | 0.00 | 99 | 1013.5 |
| 20260906055331 | 57 | 323 | 0.0 | 0.0 | 0.00 | 0.00 | 0.00 | 99 | 1013.6 |
| 20260906054826 | 57 | 323 | 0.0 | 0.0 | 0.00 | 0.00 | 0.00 | 99 | 1013.4 |
| 20260906054321 | 57 | 323 | 0.0 | 0.0 | 0.00 | 0.00 | 0.00 | 99 | 1013.7 |
| 20260906053818 | 57 | 323 | 0.0 | 0.0 | 0.00 | 0.00 | 0.00 | 99 | 1013.4 |
| 20260906053313 | 57 | 323 | 0.0 | 0.0 | 0.00 | 0.00 | 0.00 | 99 | 1013.4 |
| 20260906052808 | 57 | 323 | 0.0 | 0.0 | 0.00 | 0.00 | 0.00 | 99 | 1013.5 |
| 20260906052306 | 57 | 323 | 0.0 | 0.0 | 0.00 | 0.00 | 0.00 | 99 | 1013.7 |
| 20260906051802 | 57 | 323 | 0.0 | 0.0 | 0.00 | 0.00 | 0.00 | 99 | 1013.7 |
| 20260906051301 | 57 | 323 | 0.0 | 0.0 | 0.00 | 0.00 | 0.00 | 99 | 1013.7 |
| 20260906050756 | 57 | 323 | 0.0 | 0.0 | 0.00 | 0.00 | 0.00 | 99 | 1013.6 |
| 20260906050252 | 57 | 323 | 0.0 | 0.0 | 0.00 | 0.00 | 0.00 | 99 | 1013.6 |
| 20260906045750 | 57 | 323 | 0.0 | 0.0 | 0.00 | 0.00 | 0.00 | 99 | 1013.8 |
| 20260906045245 | 58 | 323 | 0.0 | 0.0 | 0.00 | 0.00 | 0.00 | 99 | 1013.9 |
| 20260906044741 | 58 | 322 | 0.0 | 0.0 | 0.00 | 0.00 | 0.00 | 99 | 1013.8 |
| 20260906044236 | 58 | 335 | 0.0 | 0.0 | 0.00 | 0.00 | 0.00 | 99 | 1013.8 |
| 20260906043732 | 58 | 359 | 0.0 | 0.0 | 0.00 | 0.00 | 0.00 | 99 | 1013.7 |
| 20260906043228 | 58 | 33 | 0.0 | 0.0 | 0.00 | 0.00 | 0.00 | 99 | 1013.7 |
| 20260906042727 | 58 | 38 | 0.0 | 0.0 | 0.00 | 0.00 | 0.00 | 99 | 1013.6 |
| 20260906042226 | 58 | 38 | 0.0 | 0.0 | 0.00 | 0.00 | 0.00 | 99 | 1013.4 |
| 20260906041722 | 58 | 37 | 0.0 | 0.0 | 0.00 | 0.00 | 0.00 | 99 | 1013.4 |
| 20260906041217 | 58 | 37 | 0.0 | 0.0 | 0.00 | 0.00 | 0.00 | 99 | 1013.4 |
| 20260906040713 | 58 | 37 | 0.0 | 0.0 | 0.00 | 0.00 | 0.00 | 99 | 1013.7 |
| 20260906040208 | 58 | 37 | 0.0 | 0.0 | 0.00 | 0.00 | 0.00 | 99 | 1013.8 |
| 20260906035704 | 58 | 37 | 0.0 | 0.0 | 0.00 | 0.13 | 0.13 | 99 | 1013.5 |
| 20260906035159 | 58 | 37 | 0.0 | 0.0 | 0.00 | 0.13 | 0.13 | 99 | 1013.7 |
| 20260906034659 | 58 | 37 | 0.0 | 0.0 | 0.00 | 0.13 | 0.13 | 99 | 1013.6 |
| 20260906034153 | 58 | 37 | 0.0 | 0.0 | 0.00 | 0.13 | 0.13 | 99 | 1013.3 |
| 20260906033649 | 59 | 37 | 0.0 | 0.0 | 0.00 | 0.13 | 0.13 | 99 | 1013.5 |
| 20260906033143 | 59 | 37 | 0.0 | 0.0 | 0.00 | 0.13 | 0.13 | 99 | 1013.8 |
| 20260906032641 | 59 | 38 | 0.0 | 0.0 | 0.00 | 0.13 | 0.13 | 99 | 1013.7 |
| 20260906032140 | 59 | 38 | 0.0 | 0.0 | 0.00 | 0.13 | 0.13 | 99 | 1013.5 |
| 20260906031636 | 59 | 38 | 0.0 | 0.0 | 0.00 | 0.13 | 0.13 | 99 | 1013.5 |
| 20260906031131 | 59 | 38 | 0.0 | 0.0 | 0.00 | 0.13 | 0.13 | 99 | 1013.6 |
| 20260906030630 | 59 | 38 | 0.0 | 0.0 | 0.00 | 0.13 | 0.13 | 99 | 1013.7 |
| 20260906030126 | 59 | 38 | 0.0 | 0.0 | 0.00 | 0.13 | 0.13 | 99 | 1013.5 |
| 20260906025625 | 59 | 38 | 0.0 | 0.0 | 0.00 | 0.13 | 0.13 | 99 | 1013.3 |
| 20260906025124 | 59 | 38 | 0.0 | 0.0 | 0.00 | 0.13 | 0.13 | 99 | 1013.5 |
| 20260906024619 | 59 | 38 | 0.0 | 0.0 | 0.00 | 0.13 | 0.13 | 99 | 1013.4 |
| 20260906024113 | 59 | 38 | 0.0 | 0.0 | 0.00 | 0.13 | 0.13 | 99 | 1013.4 |
| 20260906023610 | 60 | 38 | 0.0 | 0.0 | 0.00 | 0.13 | 0.13 | 99 | 1013.2 |
| 20260906023109 | 59 | 38 | 0.0 | 0.0 | 0.00 | 0.13 | 0.13 | 98 | 1013.4 |
| 20260906022605 | 60 | 38 | 0.0 | 0.0 | 0.00 | 0.13 | 0.13 | 98 | 1013.4 |
| 20260906022100 | 60 | 38 | 0.0 | 0.0 | 0.00 | 0.13 | 0.13 | 98 | 1013.1 |
| 20260906021556 | 60 | 38 | 0.0 | 0.0 | 0.00 | 0.13 | 0.13 | 97 | 1013.0 |
| 20260906021054 | 60 | 38 | 0.0 | 0.0 | 0.00 | 0.13 | 0.13 | 96 | 1013.1 |
| 20260906020554 | 60 | 38 | 0.0 | 0.0 | 0.00 | 0.13 | 0.13 | 96 | 1013.0 |
| 20260906020054 | 60 | 38 | 0.0 | 0.0 | 0.00 | 0.13 | 0.13 | 96 | 1013.0 |
| 20260906015548 | 60 | 38 | 0.0 | 0.0 | 0.00 | 0.13 | 0.13 | 96 | 1013.1 |
| 20260906015047 | 60 | 38 | 0.0 | 0.0 | 0.00 | 0.13 | 0.13 | 95 | 1013.2 |
| 20260906014542 | 61 | 37 | 0.0 | 0.0 | 0.00 | 0.13 | 0.13 | 95 | 1013.1 |
| 20260906014038 | 61 | 37 | 0.0 | 0.0 | 0.00 | 0.13 | 0.13 | 95 | 1012.9 |
| 20260906013533 | 61 | 37 | 0.0 | 0.0 | 0.00 | 0.13 | 0.13 | 95 | 1013.1 |
| 20260906013029 | 62 | 37 | 0.0 | 0.0 | 0.00 | 0.13 | 0.13 | 94 | 1013.0 |
| 20260906012524 | 61 | 37 | 0.0 | 0.0 | 0.00 | 0.13 | 0.13 | 93 | 1013.1 |
| 20260906012023 | 61 | 38 | 0.0 | 0.0 | 0.00 | 0.13 | 0.13 | 93 | 1013.3 |
| 20260906011519 | 61 | 38 | 0.0 | 0.0 | 0.00 | 0.13 | 0.13 | 94 | 1013.1 |
| 20260906011019 | 62 | 38 | 0.0 | 0.0 | 0.00 | 0.13 | 0.13 | 94 | 1013.1 |
| 20260906010514 | 62 | 38 | 0.0 | 0.0 | 0.00 | 0.13 | 0.13 | 92 | 1012.8 |
| 20260906010011 | 63 | 38 | 0.0 | 0.0 | 0.00 | 0.13 | 0.13 | 91 | 1012.7 |
| 20260906005510 | 63 | 38 | 0.0 | 0.0 | 0.00 | 0.13 | 0.13 | 89 | 1012.8 |
| 20260906005009 | 63 | 38 | 0.0 | 0.0 | 0.00 | 0.13 | 0.13 | 87 | 1012.7 |
| 20260906004503 | 64 | 38 | 0.0 | 0.0 | 0.00 | 0.13 | 0.13 | 87 | 1012.9 |
| 20260906003958 | 64 | 38 | 0.0 | 0.0 | 0.00 | 0.13 | 0.13 | 83 | 1012.9 |
| 20260906003453 | 64 | 38 | 0.0 | 0.0 | 0.00 | 0.13 | 0.13 | 82 | 1013.0 |
| 20260906002948 | 65 | 38 | 0.0 | 0.0 | 0.00 | 0.13 | 0.13 | 82 | 1012.9 |
| 20260906002443 | 65 | 38 | 0.0 | 0.0 | 0.00 | 0.13 | 0.13 | 82 | 1012.7 |
| 20260906001938 | 66 | 37 | 0.0 | 0.0 | 0.00 | 0.13 | 0.13 | 82 | 1012.7 |
| 20260906001434 | 66 | 34 | 0.0 | 0.0 | 0.00 | 0.13 | 0.13 | 81 | 1012.6 |
| 20260906000928 | 67 | 34 | 0.0 | 0.0 | 0.00 | 0.13 | 0.13 | 79 | 1012.5 |
| 20260906000425 | 67 | 33 | 0.0 | 0.0 | 0.00 | 0.13 | 0.13 | 78 | 1012.5 |
| 20260905235913 | 67 | 34 | 0.0 | 0.0 | 0.00 | 0.13 | 0.13 | 78 | 1012.5 |
| 20260905235407 | 68 | 35 | 0.0 | 0.0 | 0.00 | 0.13 | 0.13 | 78 | 1012.5 |
| 20260905234902 | 69 | 34 | 0.0 | 0.0 | 0.00 | 0.13 | 0.13 | 74 | 1012.4 |
| 20260905234357 | 69 | 40 | 0.0 | 1.0 | 0.00 | 0.13 | 0.13 | 73 | 1012.4 |
| 20260905233852 | 69 | 33 | 3.0 | 3.0 | 0.00 | 0.13 | 0.13 | 72 | 1012.2 |
| 20260905233347 | 70 | 23 | 2.0 | 2.0 | 0.00 | 0.13 | 0.13 | 71 | 1012.4 |
| 20260905232847 | 70 | 23 | 3.0 | 3.0 | 0.00 | 0.13 | 0.13 | 71 | 1012.1 |
| 20260905232343 | 70 | 21 | 2.0 | 2.0 | 0.00 | 0.13 | 0.13 | 71 | 1012.3 |
| 20260905231839 | 70 | 32 | 4.0 | 6.0 | 0.00 | 0.13 | 0.13 | 71 | 1012.2 |
| 20260905231338 | 70 | 23 | 4.0 | 5.0 | 0.00 | 0.13 | 0.13 | 72 | 1012.3 |
| 20260905230836 | 70 | 28 | 4.0 | 6.0 | 0.00 | 0.13 | 0.13 | 74 | 1012.1 |
| 20260905230333 | 71 | 359 | 3.0 | 5.0 | 0.00 | 0.13 | 0.13 | 74 | 1012.2 |
| 20260905225832 | 71 | 26 | 5.0 | 6.0 | 0.00 | 0.13 | 0.13 | 74 | 1012.2 |
| 20260905225328 | 71 | 44 | 3.0 | 6.0 | 0.00 | 0.13 | 0.13 | 76 | 1012.0 |
| 20260905224827 | 71 | 0 | 5.0 | 6.0 | 0.00 | 0.13 | 0.13 | 76 | 1012.0 |
| 20260905224324 | 71 | 25 | 3.0 | 3.0 | 0.00 | 0.13 | 0.13 | 75 | 1011.9 |
| 20260905223818 | 71 | 62 | 4.0 | 6.0 | 0.00 | 0.13 | 0.13 | 74 | 1011.9 |
| 20260905223316 | 71 | 13 | 5.0 | 7.0 | 0.00 | 0.13 | 0.13 | 74 | 1011.8 |
| 20260905222811 | 72 | 20 | 5.0 | 7.0 | 0.00 | 0.13 | 0.13 | 74 | 1012.1 |
| 20260905222309 | 72 | 26 | 9.0 | 10.0 | 0.00 | 0.13 | 0.13 | 74 | 1011.8 |
| 20260905221806 | 72 | 15 | 3.0 | 3.0 | 0.00 | 0.13 | 0.13 | 75 | 1011.7 |
| 20260905221303 | 72 | 5 | 5.0 | 6.0 | 0.00 | 0.13 | 0.13 | 75 | 1011.8 |
| 20260905220758 | 73 | 30 | 7.0 | 8.0 | 0.00 | 0.13 | 0.13 | 74 | 1011.9 |
| 20260905220254 | 73 | 12 | 6.0 | 9.0 | 0.00 | 0.13 | 0.13 | 75 | 1011.6 |
| 20260905215753 | 73 | 56 | 7.0 | 8.0 | 0.00 | 0.13 | 0.13 | 73 | 1012.0 |
| 20260905215249 | 73 | 40 | 3.0 | 3.0 | 0.00 | 0.13 | 0.13 | 75 | 1011.6 |
| 20260905214744 | 72 | 8 | 6.0 | 6.0 | 0.00 | 0.13 | 0.13 | 76 | 1011.7 |
| 20260905214240 | 73 | 31 | 3.0 | 3.0 | 0.00 | 0.13 | 0.13 | 77 | 1011.5 |
| 20260905213735 | 73 | 2 | 7.0 | 8.0 | 0.00 | 0.13 | 0.13 | 76 | 1011.4 |
| 20260905213232 | 73 | 16 | 6.0 | 8.0 | 0.00 | 0.13 | 0.13 | 77 | 1011.5 |
| 20260905212727 | 73 | 5 | 2.0 | 3.0 | 0.00 | 0.13 | 0.13 | 78 | 1011.2 |
| 20260905212226 | 72 | 25 | 3.0 | 3.0 | 0.00 | 0.13 | 0.13 | 79 | 1011.6 |
| 20260905211725 | 73 | 2 | 3.0 | 3.0 | 0.00 | 0.13 | 0.13 | 80 | 1011.4 |
| 20260905211221 | 73 | 35 | 5.0 | 6.0 | 0.00 | 0.13 | 0.13 | 80 | 1011.5 |
| 20260905210718 | 73 | 31 | 5.0 | 7.0 | 0.00 | 0.13 | 0.13 | 79 | 1011.4 |
| 20260905210217 | 72 | 23 | 8.0 | 9.0 | 0.00 | 0.13 | 0.13 | 80 | 1011.3 |
| 20260905205716 | 73 | 15 | 5.0 | 6.0 | 0.00 | 0.13 | 0.13 | 80 | 1011.2 |
| 20260905205211 | 73 | 339 | 7.0 | 9.0 | 0.00 | 0.13 | 0.13 | 81 | 1011.3 |
| 20260905204710 | 73 | 29 | 4.0 | 5.0 | 0.00 | 0.13 | 0.13 | 83 | 1011.5 |
| 20260905204206 | 73 | 45 | 3.0 | 5.0 | 0.00 | 0.13 | 0.13 | 83 | 1011.5 |
| 20260905203700 | 73 | 18 | 5.0 | 6.0 | 0.00 | 0.13 | 0.13 | 83 | 1011.5 |
| 20260905203156 | 74 | 44 | 4.0 | 6.0 | 0.00 | 0.13 | 0.13 | 82 | 1011.5 |
| 20260905202651 | 74 | 30 | 6.0 | 8.0 | 0.00 | 0.13 | 0.13 | 82 | 1011.5 |
| 20260905202146 | 74 | 30 | 3.0 | 5.0 | 0.00 | 0.13 | 0.13 | 84 | 1011.8 |
| 20260905201642 | 74 | 18 | 6.0 | 9.0 | 0.00 | 0.13 | 0.13 | 85 | 1011.7 |
| 20260905201141 | 75 | 29 | 3.0 | 5.0 | 0.00 | 0.13 | 0.13 | 85 | 1011.7 |
| 20260905200637 | 75 | 8 | 6.0 | 8.0 | 0.00 | 0.13 | 0.13 | 84 | 1011.6 |
| 20260905200132 | 75 | 32 | 1.0 | 2.0 | 0.00 | 0.13 | 0.13 | 84 | 1011.7 |
| 20260905195630 | 76 | 346 | 5.0 | 6.0 | 0.00 | 0.13 | 0.13 | 84 | 1011.7 |
| 20260905195126 | 76 | 48 | 3.0 | 5.0 | 0.00 | 0.13 | 0.13 | 84 | 1011.3 |
| 20260905194621 | 76 | 17 | 2.0 | 5.0 | 0.00 | 0.13 | 0.13 | 86 | 1011.4 |
| 20260905194120 | 77 | 15 | 7.0 | 8.0 | 0.00 | 0.13 | 0.13 | 83 | 1011.8 |
| 20260905193615 | 76 | 21 | 0.0 | 0.0 | 0.00 | 0.13 | 0.13 | 86 | 1011.7 |
| 20260905193110 | 76 | 334 | 5.0 | 6.0 | 0.00 | 0.13 | 0.13 | 86 | 1011.5 |
| 20260905192606 | 76 | 27 | 5.0 | 7.0 | 0.00 | 0.13 | 0.13 | 85 | 1011.5 |
| 20260905192102 | 75 | 48 | 1.0 | 1.0 | 0.00 | 0.13 | 0.13 | 88 | 1011.6 |
| 20260905191600 | 75 | 12 | 2.0 | 2.0 | 0.00 | 0.13 | 0.13 | 88 | 1011.8 |
| 20260905191059 | 75 | 35 | 3.0 | 5.0 | 0.00 | 0.13 | 0.13 | 88 | 1011.7 |
| 20260905190557 | 75 | 28 | 5.0 | 5.0 | 0.00 | 0.13 | 0.13 | 89 | 1011.6 |
| 20260905190056 | 75 | 40 | 1.0 | 2.0 | 0.00 | 0.13 | 0.13 | 90 | 1011.5 |
| 20260905185556 | 75 | 42 | 0.0 | 1.0 | 0.00 | 0.13 | 0.13 | 90 | 1011.5 |
| 20260905185050 | 75 | 48 | 1.0 | 2.0 | 0.00 | 0.13 | 0.13 | 90 | 1011.7 |
| 20260905184545 | 75 | 348 | 3.0 | 3.0 | 0.00 | 0.13 | 0.13 | 89 | 1011.9 |
| 20260905184044 | 75 | 39 | 1.0 | 1.0 | 0.00 | 0.13 | 0.13 | 90 | 1011.8 |
| 20260905183543 | 74 | 15 | 2.0 | 2.0 | 0.00 | 0.13 | 0.13 | 91 | 1011.8 |
| 20260905183039 | 74 | 34 | 2.0 | 2.0 | 0.00 | 0.13 | 0.13 | 93 | 1011.9 |
| 20260905182538 | 74 | 59 | 0.0 | 0.0 | 0.00 | 0.13 | 0.13 | 95 | 1012.0 |
| 20260905182032 | 73 | 55 | 2.0 | 2.0 | 0.00 | 0.13 | 0.13 | 97 | 1011.7 |
| 20260905181527 | 73 | 51 | 1.0 | 1.0 | 0.00 | 0.13 | 0.13 | 99 | 1011.7 |
| 20260905181027 | 73 | 31 | 0.0 | 0.0 | 0.00 | 0.13 | 0.13 | 99 | 1012.1 |
| 20260905180522 | 72 | 23 | 1.0 | 2.0 | 0.00 | 0.13 | 0.13 | 99 | 1011.9 |
| 20260905180017 | 72 | 37 | 0.0 | 0.0 | 0.00 | 0.13 | 0.13 | 99 | 1012.2 |
| 20260905175516 | 72 | 78 | 0.0 | 0.0 | 0.00 | 0.13 | 0.13 | 99 | 1012.2 |
| 20260905175012 | 72 | 77 | 0.0 | 0.0 | 0.00 | 0.13 | 0.13 | 99 | 1012.1 |
| 20260905174507 | 72 | 77 | 0.0 | 0.0 | 0.00 | 0.13 | 0.13 | 99 | 1012.2 |
| 20260905174003 | 72 | 77 | 0.0 | 0.0 | 0.00 | 0.13 | 0.13 | 99 | 1012.0 |
| 20260905173459 | 72 | 77 | 0.0 | 0.0 | 0.00 | 0.13 | 0.13 | 99 | 1012.2 |
| 20260905172954 | 71 | 77 | 0.0 | 0.0 | 0.00 | 0.13 | 0.13 | 99 | 1012.3 |
| 20260905172452 | 72 | 78 | 0.0 | 0.0 | 0.00 | 0.13 | 0.13 | 99 | 1011.8 |
| 20260905171948 | 71 | 78 | 0.0 | 0.0 | 0.07 | 0.13 | 0.13 | 99 | 1012.3 |
| 20260905171444 | 71 | 78 | 0.0 | 0.0 | 0.24 | 0.13 | 0.13 | 99 | 1012.2 |
| 20260905170941 | 71 | 78 | 0.0 | 0.0 | 0.28 | 0.12 | 0.12 | 99 | 1012.1 |
| 20260905170436 | 71 | 57 | 0.0 | 0.0 | 0.12 | 0.09 | 0.09 | 99 | 1012.3 |
| 20260905165935 | 71 | 55 | 0.0 | 0.0 | 0.07 | 0.07 | 0.07 | 98 | 1012.3 |
| 20260905165430 | 71 | 58 | 0.0 | 0.0 | 0.31 | 0.07 | 0.07 | 98 | 1012.2 |
| 20260905164926 | 71 | 77 | 0.0 | 1.0 | 0.24 | 0.06 | 0.06 | 96 | 1012.3 |
| 20260905164420 | 72 | 37 | 4.0 | 5.0 | 0.07 | 0.02 | 0.02 | 95 | 1012.5 |
| 20260905163915 | 72 | 53 | 1.0 | 1.0 | 0.00 | 0.01 | 0.01 | 93 | 1012.3 |
| 20260905163412 | 73 | 48 | 1.0 | 2.0 | 0.00 | 0.01 | 0.01 | 92 | 1012.3 |
| 20260905162908 | 73 | 56 | 1.0 | 1.0 | 0.00 | 0.01 | 0.01 | 93 | 1012.0 |
| 20260905162402 | 74 | 99 | 0.0 | 0.0 | 0.00 | 0.01 | 0.01 | 92 | 1012.3 |
| 20260905161857 | 74 | 94 | 0.0 | 1.0 | 0.00 | 0.01 | 0.01 | 90 | 1012.2 |
| 20260905161356 | 75 | 94 | 1.0 | 1.0 | 0.00 | 0.01 | 0.01 | 89 | 1012.2 |
| 20260905160854 | 75 | 126 | 1.0 | 1.0 | 0.00 | 0.01 | 0.01 | 88 | 1012.5 |
| 20260905160349 | 76 | 31 | 0.0 | 0.0 | 0.00 | 0.01 | 0.01 | 89 | 1012.2 |
| 20260905155843 | 77 | 31 | 1.0 | 1.0 | 0.00 | 0.01 | 0.01 | 87 | 1012.5 |
| 20260905155343 | 77 | 184 | 0.0 | 0.0 | 0.00 | 0.01 | 0.01 | 86 | 1012.3 |
| 20260905154842 | 77 | 78 | 0.0 | 0.0 | 0.00 | 0.01 | 0.01 | 87 | 1012.4 |
| 20260905154338 | 76 | 76 | 0.0 | 0.0 | 0.00 | 0.01 | 0.01 | 88 | 1012.4 |
| 20260905153833 | 75 | 70 | 0.0 | 0.0 | 0.00 | 0.01 | 0.01 | 87 | 1012.3 |
| 20260905153330 | 75 | 72 | 0.0 | 0.0 | 0.00 | 0.01 | 0.01 | 88 | 1012.2 |
| 20260905152824 | 75 | 44 | 0.0 | 0.0 | 0.00 | 0.01 | 0.01 | 90 | 1012.1 |
| 20260905152323 | 75 | 33 | 0.0 | 0.0 | 0.00 | 0.01 | 0.01 | 90 | 1012.1 |
| 20260905151818 | 75 | 53 | 0.0 | 0.0 | 0.00 | 0.01 | 0.01 | 89 | 1012.1 |
| 20260905151314 | 75 | 88 | 0.0 | 0.0 | 0.00 | 0.01 | 0.01 | 90 | 1012.1 |
| 20260905150814 | 75 | 88 | 0.0 | 0.0 | 0.00 | 0.01 | 0.01 | 91 | 1012.0 |
| 20260905150313 | 75 | 94 | 0.0 | 0.0 | 0.00 | 0.01 | 0.01 | 90 | 1011.9 |
| 20260905145810 | 75 | 133 | 0.0 | 0.0 | 0.00 | 0.01 | 0.01 | 90 | 1012.1 |
| 20260905145306 | 74 | 131 | 1.0 | 1.0 | 0.00 | 0.01 | 0.01 | 92 | 1012.0 |
| 20260905144804 | 74 | 110 | 0.0 | 0.0 | 0.00 | 0.01 | 0.01 | 93 | 1012.0 |
| 20260905144300 | 73 | 36 | 0.0 | 0.0 | 0.00 | 0.01 | 0.01 | 94 | 1012.0 |
| 20260905143758 | 74 | 56 | 0.0 | 0.0 | 0.00 | 0.01 | 0.01 | 95 | 1012.1 |
| 20260905143253 | 73 | 55 | 0.0 | 0.0 | 0.00 | 0.01 | 0.01 | 97 | 1012.0 |
| 20260905142751 | 72 | 107 | 0.0 | 0.0 | 0.00 | 0.01 | 0.01 | 99 | 1012.0 |
| 20260905142246 | 71 | 95 | 0.0 | 0.0 | 0.00 | 0.01 | 0.01 | 99 | 1011.8 |
| 20260905141742 | 72 | 123 | 1.0 | 2.0 | 0.00 | 0.01 | 0.01 | 99 | 1011.7 |
| 20260905141238 | 71 | 63 | 1.0 | 1.0 | 0.00 | 0.01 | 0.01 | 99 | 1011.8 |
| 20260905140733 | 71 | 28 | 0.0 | 0.0 | 0.00 | 0.01 | 0.01 | 99 | 1011.7 |
| 20260905140227 | 70 | 231 | 0.0 | 0.0 | 0.00 | 0.01 | 0.01 | 99 | 1011.8 |
| 20260905135726 | 71 | 203 | 0.0 | 0.0 | 0.00 | 0.01 | 0.01 | 99 | 1012.1 |
| 20260905135223 | 71 | 174 | 0.0 | 0.0 | 0.00 | 0.01 | 0.01 | 99 | 1011.9 |
| 20260905134722 | 70 | 174 | 0.0 | 0.0 | 0.00 | 0.01 | 0.01 | 99 | 1012.2 |
| 20260905134221 | 70 | 151 | 0.0 | 0.0 | 0.00 | 0.01 | 0.01 | 99 | 1012.0 |
| 20260905133716 | 70 | 111 | 0.0 | 0.0 | 0.00 | 0.01 | 0.01 | 99 | 1012.1 |
| 20260905133211 | 70 | 136 | 0.0 | 0.0 | 0.00 | 0.01 | 0.01 | 99 | 1011.9 |
| 20260905132710 | 70 | 166 | 0.0 | 0.0 | 0.00 | 0.01 | 0.01 | 99 | 1012.0 |
| 20260905132206 | 69 | 167 | 0.0 | 0.0 | 0.00 | 0.01 | 0.01 | 99 | 1012.3 |
| 20260905131701 | 69 | 163 | 0.0 | 0.0 | 0.00 | 0.01 | 0.01 | 99 | 1012.4 |
| 20260905131155 | 69 | 146 | 0.0 | 0.0 | 0.00 | 0.01 | 0.01 | 99 | 1012.5 |